EW8004 Weather Reports


time (UTC)temp
F
wind
direction
speed
knots
gust
knots
rain 1hr
in
rain 24hr
in
rain mn
in
humidity
%
barometer
mb
20260505221553 70 175 0.0 0.0 0.00 0.00 0.00 69 1010.2
20260505220053 70 175 0.0 0.0 0.00 0.00 0.00 66 1010.3
20260505214542 70 175 0.0 0.0 0.00 0.00 0.00 67 1010.3
20260505213041 70 175 0.0 0.0 0.00 0.00 0.00 65 1010.3
20260505211547 70 175 0.0 0.0 0.00 0.00 0.00 66 1010.6
20260505210040 70 175 0.0 0.0 0.00 0.00 0.00 66 1010.5
20260505204538 70 175 0.0 0.0 0.00 0.00 0.00 66 1010.7
20260505203035 70 103 0.0 0.0 0.00 0.00 0.00 67 1011.1
20260505201533 70 134 0.0 0.0 0.00 0.00 0.00 67 1011.2
20260505200039 70 138 0.0 0.0 0.00 0.00 0.00 69 1011.3
20260505194532 71 125 0.0 0.0 0.00 0.00 0.00 66 1011.3
20260505193031 71 31 0.0 0.0 0.00 0.00 0.00 67 1011.6
20260505191530 72 39 0.0 0.0 0.00 0.00 0.00 67 1011.7
20260505190026 71 39 0.0 0.0 0.00 0.00 0.00 66 1012.0
20260505184527 72 68 0.0 0.0 0.00 0.00 0.00 66 1012.3
20260505183033 72 93 0.0 0.0 0.00 0.00 0.00 65 1012.5
20260505181525 72 120 0.0 0.0 0.00 0.00 0.00 68 1012.7
20260505180024 71 196 0.0 0.0 0.00 0.00 0.00 65 1013.2
20260505174525 71 184 0.0 0.0 0.00 0.00 0.00 63 1013.3
20260505173022 72 119 0.0 0.0 0.00 0.00 0.00 64 1013.4
20260505171522 72 231 0.0 0.0 0.00 0.00 0.00 56 1013.5
20260505170027 72 36 0.0 0.0 0.00 0.00 0.00 68 1013.8
20260505164520 72 35 0.0 0.0 0.00 0.00 0.00 68 1014.2
20260505163020 72 33 0.0 0.0 0.00 0.00 0.00 65 1014.2
20260505161534 71 214 0.0 0.0 0.00 0.00 0.00 67 1014.3
20260505153013 69 213 0.0 0.0 0.00 0.00 0.00 68 1014.2
20260505151507 68 5 0.0 0.0 0.00 0.00 0.00 68 1014.2
20260505124532 53 109 0.0 0.0 0.00 0.00 0.00 97 1014.3
20260505123033 51 109 0.0 0.0 0.00 0.00 0.00 97 1014.2
20260505121534 49 108 0.0 0.0 0.00 0.00 0.00 96 1014.1
20260505120026 48 109 0.0 0.0 0.00 0.00 0.00 96 1014.1
20260505114526 48 108 0.0 0.0 0.00 0.00 0.00 96 1014.1
20260505113025 47 108 0.0 0.0 0.00 0.00 0.00 95 1014.1
20260505111521 47 108 0.0 0.0 0.00 0.00 0.00 94 1013.8
20260505101515 48 109 0.0 0.0 0.00 0.00 0.00 93 1013.4
20260505100017 48 109 0.0 0.0 0.00 0.00 0.00 93 1013.4
20260505094511 48 108 0.0 0.0 0.00 0.00 0.00 93 1013.4
20260505093110 49 108 0.0 0.0 0.00 0.00 0.00 93 1013.6
20260505091509 49 109 0.0 0.0 0.00 0.00 0.00 92 1013.6
20260505090006 50 108 0.0 0.0 0.00 0.00 0.00 92 1013.6
20260505084503 50 108 0.0 0.0 0.00 0.00 0.00 92 1013.3
20260505083107 50 108 0.0 0.0 0.00 0.00 0.00 92 1013.2
20260505081601 51 108 0.0 0.0 0.00 0.00 0.00 92 1013.1
20260505080055 51 108 0.0 0.0 0.00 0.00 0.00 91 1012.8
20260505074553 52 108 0.0 0.0 0.00 0.00 0.00 91 1012.7
20260505073053 53 108 0.0 0.0 0.00 0.00 0.00 91 1012.6
20260505071552 53 108 0.0 0.0 0.00 0.00 0.00 90 1012.7
20260505070051 53 108 0.0 0.0 0.00 0.00 0.00 91 1012.8
20260505064550 53 108 0.0 0.0 0.00 0.00 0.00 92 1012.7
20260505063049 53 108 0.0 0.0 0.00 0.00 0.00 93 1012.6
20260505061550 53 108 0.0 0.0 0.00 0.00 0.00 93 1012.6
20260505060048 53 109 0.0 0.0 0.00 0.00 0.00 93 1012.6
20260505054553 53 109 0.0 0.0 0.00 0.00 0.00 94 1012.6
20260505053043 52 109 0.0 0.0 0.00 0.00 0.00 94 1012.5
20260505051542 52 108 0.0 0.0 0.00 0.00 0.00 93 1012.2
20260505041534 53 108 0.0 0.0 0.00 0.00 0.00 92 1012.2
20260505040031 53 108 0.0 0.0 0.00 0.00 0.00 91 1012.2
20260505034529 53 108 0.0 0.0 0.00 0.00 0.00 91 1012.2
20260505033036 53 108 0.0 0.0 0.00 0.00 0.00 91 1012.3
20260505031534 54 108 0.0 0.0 0.00 0.00 0.00 90 1012.4
20260505030028 54 108 0.0 0.0 0.00 0.00 0.00 88 1012.4
20260505024543 55 108 0.0 0.0 0.00 0.00 0.00 87 1012.5
20260505023036 56 108 0.0 0.0 0.00 0.00 0.00 86 1012.7
20260505021527 57 108 0.0 0.0 0.00 0.00 0.00 84 1012.6
20260505020025 58 108 0.0 0.0 0.00 0.00 0.00 83 1012.4
20260505014534 59 108 0.0 0.0 0.00 0.00 0.00 81 1012.4
20260505013025 60 108 0.0 0.0 0.00 0.00 0.00 79 1012.3
20260505011524 61 108 0.0 0.0 0.00 0.00 0.00 77 1012.1
20260505010023 63 108 0.0 0.0 0.00 0.00 0.00 74 1012.0
20260505004524 65 108 0.0 0.0 0.00 0.00 0.00 71 1011.9
20260505003022 66 108 0.0 0.0 0.00 0.00 0.00 71 1011.8
20260505001522 67 108 0.0 0.0 0.00 0.00 0.00 69 1011.7
20260505000022 68 108 0.0 0.0 0.00 0.00 0.00 70 1011.7
20260504234521 69 108 0.0 0.0 0.00 0.00 0.00 67 1011.6
20260504233019 69 108 0.0 0.0 0.00 0.00 0.00 65 1011.5
20260504231518 70 108 0.0 0.0 0.00 0.00 0.00 62 1011.6
20260504230017 70 108 0.0 0.0 0.00 0.00 0.00 61 1011.8
20260504224516 70 186 0.0 0.0 0.00 0.00 0.00 60 1011.7
20260504223015 71 141 0.0 0.0 0.00 0.00 0.00 60 1011.7